H1 CPF 2 NER 2021 11 25 9 329 01 glonass137 H2 1705501 9137 42939 2021 11 25 0 0 0 2021 11 28 23 45 0 900 1 1 0 0 0 1 H9 10 0 59543 0.00000 0 20982122.320 7685374.900 -12279254.703 10 0 59543 900.00000 0 19312552.399 7503308.891 -14858576.553 10 0 59543 1800.00000 0 17334264.814 7447132.883 -17148874.230 10 0 59543 2700.00000 0 15096332.691 7555051.762 -19105593.298 10 0 59543 3600.00000 0 12656176.874 7855785.145 -20690676.843 10 0 59543 4500.00000 0 10077352.203 8367179.663 -21873307.399 10 0 59543 5400.00000 0 7427089.399 9095293.778 -22630506.490 10 0 59543 6300.00000 0 4773694.954 10033994.403 -22947580.342 10 0 59543 7200.00000 0 2183917.340 11165082.835 -22818403.331 10 0 59543 8100.00000 0 -279611.140 12458945.178 -22245534.040 10 0 59543 9000.00000 0 -2560750.847 13875700.329 -21240161.922 10 0 59543 9900.00000 0 -4611951.347 15366797.524 -19821885.874 10 0 59543 10800.00000 0 -6395981.658 16876996.627 -18018329.209 10 0 59543 11700.00000 0 -7887223.292 18346648.132 -15864598.607 10 0 59543 12600.00000 0 -9072473.449 19714177.167 -13402597.667 10 0 59543 13500.00000 0 -9951226.411 20918667.202 -10680208.513 10 0 59543 14400.00000 0 -10535423.055 21902434.844 -7750357.445 10 0 59543 15300.00000 0 -10848680.693 22613487.411 -4669983.067 10 0 59543 16200.00000 0 -10925037.308 23007759.922 -1498927.186 10 0 59543 17100.00000 0 -10807264.687 23051037.356 1701229.665 10 0 59543 18000.00000 0 -10544822.854 22720481.348 4868365.045 10 0 59543 18900.00000 0 -10191543.321 22005697.159 7941020.258 10 0 59543 19800.00000 0 -9803139.813 20909296.106 10859591.270 10 0 59543 20700.00000 0 -9434652.110 19446929.874 13567481.667 10 0 59543 21600.00000 0 -9137931.266 17646795.191 16012195.509 10 0 59543 22500.00000 0 -8959272.349 15548629.406 18146349.305 10 0 59543 23400.00000 0 -8937294.428 13202238.659 19928584.001 10 0 59543 24300.00000 0 -9101156.954 10665619.490 21324360.107 10 0 59543 25200.00000 0 -9469187.484 8002751.394 22306621.337 10 0 59543 26100.00000 0 -10047978.413 5281151.261 22856314.650 10 0 59543 27000.00000 0 -10831990.898 2569290.204 22962757.283 10 0 59543 27900.00000 0 -11803683.066 -66021.278 22623844.054 10 0 59543 28800.00000 0 -12934157.860 -2562172.414 21846091.055 10 0 59543 29700.00000 0 -14184304.374 -4863111.526 20644514.687 10 0 59543 30600.00000 0 -15506385.958 -6921428.847 19042347.870 10 0 59543 31500.00000 0 -16846009.700 -8700077.174 17070598.179 10 0 59543 32400.00000 0 -18144395.822 -10173659.670 14767455.541 10 0 59543 33300.00000 0 -19340852.644 -11329231.812 12177559.928 10 0 59543 34200.00000 0 -20375353.862 -12166584.534 9351142.407 10 0 59543 35100.00000 0 -21191110.051 -12697997.178 6343055.384 10 0 59543 36000.00000 0 -21737026.029 -12947470.982 3211710.291 10 0 59543 36900.00000 0 -21969940.197 -12949475.766 17943.280 10 0 59543 37800.00000 0 -21856550.511 -12747263.023 -3176169.080 10 0 59543 38700.00000 0 -21374944.910 -12390817.230 -6308520.656 10 0 59543 39600.00000 0 -20515670.608 -11934532.583 -9318188.850 10 0 59543 40500.00000 0 -19282295.758 -11434714.117 -12146625.740 10 0 59543 41400.00000 0 -17691438.674 -10947009.772 -14738803.292 10 0 59543 42300.00000 0 -15772262.309 -10523882.897 -17044289.556 10 0 59543 43200.00000 0 -13565454.303 -10212232.957 -19018234.433 10 0 59543 44100.00000 0 -11121734.620 -10051265.797 -20622245.427 10 0 59543 45000.00000 0 -8499952.773 -10070704.101 -21825136.184 10 0 59543 45900.00000 0 -5764853.722 -10289414.136 -22603533.284 10 0 59543 46800.00000 0 -2984605.349 -10714507.120 -22942329.730 10 0 59543 47700.00000 0 -228190.322 -11340953.360 -22834976.523 10 0 59543 48600.00000 0 2437229.417 -12151725.630 -22283607.031 10 0 59543 49500.00000 0 4948866.348 -13118465.840 -21298992.001 10 0 59543 50400.00000 0 7250673.507 -14202647.003 -19900326.330 10 0 59543 51300.00000 0 9295425.419 -15357181.603 -18114851.934 10 0 59543 52200.00000 0 11046428.157 -16528408.680 -15977324.120 10 0 59543 53100.00000 0 12478788.362 -17658375.876 -13529331.985 10 0 59543 54000.00000 0 13580189.677 -18687320.341 -10818486.107 10 0 59543 54900.00000 0 14351145.670 -19556243.862 -7897489.450 10 0 59543 55800.00000 0 14804720.241 -20209473.588 -4823109.791 10 0 59543 56700.00000 0 14965728.967 -20597100.340 -1655073.876 10 0 59543 57600.00000 0 14869456.559 -20677191.598 1545094.896 10 0 59543 58500.00000 0 14559945.873 -20417685.817 4715272.269 10 0 59543 59400.00000 0 14087931.886 -19797888.181 7793938.919 10 0 59543 60300.00000 0 13508508.733 -18809504.709 10721372.673 10 0 59543 61200.00000 0 12878628.932 -17457171.126 13440803.878 10 0 59543 62100.00000 0 12254540.662 -15758454.035 15899511.723 10 0 59543 63000.00000 0 11689271.244 -13743324.009 18049840.670 10 0 59543 63900.00000 0 11230262.743 -11453122.177 19850117.765 10 0 59543 64800.00000 0 10917258.924 -8939062.783 21265453.865 10 0 59543 65700.00000 0 10780532.089 -6260333.235 22268414.010 10 0 59543 66600.00000 0 10839524.017 -3481869.759 22839544.727 10 0 59543 67500.00000 0 11101957.855 -671899.820 22967748.695 10 0 59543 68400.00000 0 11563458.291 2100647.949 22650499.942 10 0 59543 69300.00000 0 12207696.177 4768760.151 21893895.535 10 0 59543 70200.00000 0 13007052.097 7269874.166 20712542.592 10 0 59543 71100.00000 0 13923771.774 9548228.860 19129282.305 10 0 59543 72000.00000 0 14911565.704 11556933.827 17174755.590 10 0 59543 72900.00000 0 15917586.796 13259672.036 14886817.858 10 0 59543 73800.00000 0 16884703.701 14631965.668 12309813.220 10 0 59543 74700.00000 0 17753974.923 15661952.824 9493721.334 10 0 59543 75600.00000 0 18467219.860 16350643.028 6493192.643 10 0 59543 76500.00000 0 18969578.467 16711641.137 3366490.150 10 0 59543 77400.00000 0 19211951.194 16770351.480 174358.146 10 0 59543 78300.00000 0 19153215.458 16562696.085 -3021160.142 10 0 59543 79200.00000 0 18762124.198 16133401.504 -6157932.551 10 0 59543 80100.00000 0 18018805.057 15533926.983 -9174951.513 10 0 59543 81000.00000 0 16915795.625 14820122.161 -12013526.749 10 0 59543 81900.00000 0 15458569.714 14049713.973 -14618433.206 10 0 59543 82800.00000 0 13665531.120 13279729.702 -16938991.132 10 0 59543 83700.00000 0 11567473.980 12563965.828 -18930056.708 10 0 59543 84600.00000 0 9206531.287 11950610.247 -20552903.639 10 0 59543 85500.00000 0 6634654.828 11480118.766 -21775978.275 10 0 59544 0.00000 0 3911689.662 11183435.877 -22575513.623 10 0 59544 900.00000 0 1103121.473 11080634.894 -22935990.814 10 0 59544 1800.00000 0 -1722405.953 11180035.156 -22850438.336 10 0 59544 2700.00000 0 -4495705.100 11477832.852 -22320564.988 10 0 59544 3600.00000 0 -7149678.931 11958261.260 -21356723.080 10 0 59544 4500.00000 0 -9621867.276 12594273.165 -19977703.359 10 0 59544 5400.00000 0 -11856799.855 13348716.466 -18210365.759 10 0 59544 6300.00000 0 -13808058.821 14175953.115 -16089113.222 10 0 59544 7200.00000 0 -15439965.763 15023852.843 -13655218.970 10 0 59544 8100.00000 0 -16728823.990 15836077.342 -10956020.356 10 0 59544 9000.00000 0 -17663665.492 16554558.227 -8043995.081 10 0 59544 9900.00000 0 -18246472.724 17122063.982 -4975737.972 10 0 59544 10800.00000 0 -18491867.456 17484747.262 -1810858.454 10 0 59544 11700.00000 0 -18426281.303 17594564.809 1389179.584 10 0 59544 12600.00000 0 -18086644.210 17411467.613 4562252.542 10 0 59544 13500.00000 0 -17518647.460 16905268.732 7646783.037 10 0 59544 14400.00000 0 -16774655.422 16057109.826 10582933.385 10 0 59544 15300.00000 0 -15911354.844 14860464.384 13313763.366 10 0 59544 16200.00000 0 -14987241.227 13321635.191 15786329.975 10 0 59544 17100.00000 0 -14060048.324 11459724.639 17952708.243 10 0 59544 18000.00000 0 -13184228.836 9306078.630 19770913.831 10 0 59544 18900.00000 0 -12408591.940 6903226.508 21205710.271 10 0 59544 19800.00000 0 -11774196.373 4303360.265 22229286.034 10 0 59544 20700.00000 0 -11312587.029 1566415.301 22821789.013 10 0 59544 21600.00000 0 -11044448.486 -1242168.774 22971708.790 10 0 59544 22500.00000 0 -10978731.564 -4053915.738 22676099.670 10 0 59544 23400.00000 0 -11112289.341 -6799907.658 21940640.340 10 0 59544 24300.00000 0 -11430037.923 -9413400.909 20779528.828 10 0 59544 25200.00000 0 -11905635.519 -11832356.035 19215214.326 10 0 59544 26100.00000 0 -12502651.803 -14001777.465 17277970.350 10 0 59544 27000.00000 0 -13176179.014 -15875766.711 15005316.594 10 0 59544 27900.00000 0 -13874817.710 -17419204.366 12441299.667 10 0 59544 28800.00000 0 -14542954.132 -18608991.123 9635645.817 10 0 59544 29700.00000 0 -15123233.514 -19434796.277 6642801.188 10 0 59544 30600.00000 0 -15559125.136 -19899282.604 3520877.733 10 0 59544 31500.00000 0 -15797470.483 -20017798.186 330525.028 10 0 59544 32400.00000 0 -15790906.258 -19817548.394 -2866250.067 10 0 59544 33300.00000 0 -15500058.967 -19336283.117 -6007292.586 10 0 59544 34200.00000 0 -14895417.130 -18620554.912 -9031513.301 10 0 59544 35100.00000 0 -13958800.704 -17723622.020 -11880082.937 10 0 59544 36000.00000 0 -12684364.164 -16703085.296 -14497582.780 10 0 59544 36900.00000 0 -11079089.517 -15618359.435 -16833088.500 10 0 59544 37800.00000 0 -9162747.119 -14528085.874 -18841165.571 10 0 59544 38700.00000 0 -6967324.597 -13487597.065 -20482756.547 10 0 59544 39600.00000 0 -4535946.808 -12546539.491 -21725942.685 10 0 59544 40500.00000 0 -1921331.076 -11746755.872 -22546565.174 10 0 59544 41400.00000 0 816158.539 -11120515.784 -22928694.066 10 0 59544 42300.00000 0 3610777.296 -10689169.089 -22864936.008 10 0 59544 43200.00000 0 6393892.306 -10462278.479 -22356575.164 10 0 59544 44100.00000 0 9096598.271 -10437267.147 -21413544.839 10 0 59544 45000.00000 0 11652347.951 -10599595.859 -20054230.622 10 0 59544 45900.00000 0 13999488.490 -10923461.288 -18305109.055 10 0 59544 46800.00000 0 16083598.603 -11372985.520 -16200228.932 10 0 59544 47700.00000 0 17859529.949 -11903845.964 -13780545.461 10 0 59544 48600.00000 0 19293068.432 -12465276.284 -11093120.291 10 0 59544 49500.00000 0 20362147.118 -13002353.335 -8190203.064 10 0 59544 50400.00000 0 21057561.144 -13458473.054 -5128212.590 10 0 59544 51300.00000 0 21383156.013 -13777910.217 -1966637.703 10 0 59544 52200.00000 0 21355482.719 -13908353.542 1233120.596 10 0 59544 53100.00000 0 21002935.499 -13803308.665 4408942.733 10 0 59544 54000.00000 0 20364409.752 -13424267.221 7499196.505 10 0 59544 54900.00000 0 19487537.669 -12742550.148 10443931.737 10 0 59544 55800.00000 0 18426576.672 -11740747.233 13186040.338 10 0 59544 56700.00000 0 17240040.099 -10413691.901 15672359.437 10 0 59544 57600.00000 0 15988170.035 -8768929.797 17854696.569 10 0 59544 58500.00000 0 14730358.462 -6826660.885 19690757.526 10 0 59544 59400.00000 0 13522624.721 -4619156.724 21144959.642 10 0 59544 60300.00000 0 12415254.537 -2189676.177 22189115.552 10 0 59544 61200.00000 0 11450698.931 409076.300 22802974.896 10 0 59544 62100.00000 0 10661820.295 3116887.021 22974614.183 10 0 59544 63000.00000 0 10070558.349 5868285.046 22700667.699 10 0 59544 63900.00000 0 9687071.292 8595017.695 21986395.141 10 0 59544 64800.00000 0 9509387.712 11228648.301 20845584.560 10 0 59544 65700.00000 0 9523583.664 13703169.779 19300291.998 10 0 59544 66600.00000 0 9704477.525 15957526.501 17380422.185 10 0 59544 67500.00000 0 10016813.683 17937940.664 15123157.499 10 0 59544 68400.00000 0 10416885.603 19599946.971 12572245.272 10 0 59544 69300.00000 0 10854530.252 20910051.104 9777156.323 10 0 59544 70200.00000 0 11275410.117 21846943.127 6792130.315 10 0 59544 71100.00000 0 11623486.502 22402214.904 3675125.797 10 0 59544 72000.00000 0 11843579.391 22580551.345 486695.124 10 0 59544 72900.00000 0 11883905.170 22399387.582 -2711193.800 10 0 59544 73800.00000 0 11698484.025 21888046.374 -5856365.806 10 0 59544 74700.00000 0 11249314.150 21086392.221 -8887652.561 10 0 59544 75600.00000 0 10508219.486 20043059.157 -11746088.229 10 0 59544 76500.00000 0 9458291.473 18813327.248 -14376062.694 10 0 59544 77400.00000 0 8094862.438 17456737.786 -16726409.109 10 0 59544 78300.00000 0 6425968.100 16034548.228 -18751404.077 10 0 59544 79200.00000 0 4472278.293 14607134.544 -20411660.612 10 0 59544 80100.00000 0 2266497.542 13231450.740 -21674896.274 10 0 59544 81000.00000 0 -147740.493 11958652.672 -22516561.548 10 0 59544 81900.00000 0 -2717439.467 10831986.033 -22920316.457 10 0 59544 82800.00000 0 -5382202.958 9885027.098 -22878346.328 10 0 59544 83700.00000 0 -8076512.063 9140349.664 -22391510.947 10 0 59544 84600.00000 0 -10732223.627 8608673.502 -21469324.478 10 0 59544 85500.00000 0 -13281185.443 8288529.315 -20129766.776 10 0 59545 0.00000 0 -15657859.840 8166453.305 -18398930.163 10 0 59545 900.00000 0 -17801848.091 8217702.128 -16310507.579 10 0 59545 1800.00000 0 -19660207.763 8407457.254 -13905134.645 10 0 59545 2700.00000 0 -21189471.268 8692466.768 -11229595.350 10 0 59545 3600.00000 0 -22357278.803 9023054.646 -8335909.155 10 0 59545 4500.00000 0 -23143559.564 9345411.772 -5280316.642 10 0 59545 5400.00000 0 -23541212.560 9604071.177 -2122183.784 10 0 59545 6300.00000 0 -23556259.571 9744462.285 1077153.602 10 0 59545 7200.00000 0 -23207464.945 9715435.655 4255582.305 10 0 59545 8100.00000 0 -22525439.310 9471651.093 7351417.668 10 0 59545 9000.00000 0 -21551265.906 8975727.839 10304599.429 10 0 59545 9900.00000 0 -20334708.087 8200065.784 13057854.037 10 0 59545 10800.00000 0 -18932073.956 7128260.538 15557801.144 10 0 59545 11700.00000 0 -17403828.106 5756052.334 17755983.090 10 0 59545 12600.00000 0 -15812050.768 4091768.364 19609797.957 10 0 59545 13500.00000 0 -14217850.583 2156239.211 21083318.827 10 0 59545 14400.00000 0 -12678838.835 -17808.073 22147984.172 10 0 59545 15300.00000 0 -11246770.128 -2386856.050 22783146.732 10 0 59545 16200.00000 0 -9965447.288 -4898157.354 22976470.962 10 0 59545 17100.00000 0 -8868977.139 -7491686.109 22724171.786 10 0 59545 18000.00000 0 -7980449.237 -10102400.609 22031090.218 10 0 59545 18900.00000 0 -7311092.042 -12662724.804 20910604.270 10 0 59545 19800.00000 0 -6859941.264 -15105146.920 19384376.422 10 0 59545 20700.00000 0 -6614033.926 -17364828.365 17481941.855 10 0 59545 21600.00000 0 -6549119.822 -19382115.420 15240144.538 10 0 59545 22500.00000 0 -6630860.463 -21104849.809 12702431.084 10 0 59545 23400.00000 0 -6816465.143 -22490382.161 9918015.200 10 0 59545 24300.00000 0 -7056695.241 -23507204.439 6940928.096 10 0 59545 25200.00000 0 -7298152.135 -24136132.866 3828972.694 10 0 59545 26100.00000 0 -7485751.882 -24370991.611 642601.749 10 0 59545 27000.00000 0 -7565281.506 -24218768.106 -2556258.366 10 0 59545 27900.00000 0 -7485927.967 -23699233.274 -5705415.023 10 0 59545 28800.00000 0 -7202671.905 -22844042.604 -8743623.680 10 0 59545 29700.00000 0 -6678443.569 -21695355.732 -11611784.948 10 0 59545 30600.00000 0 -5885948.389 -20304032.809 -14254100.384 10 0 59545 31500.00000 0 -4809083.631 -18727483.899 -16619163.660 10 0 59545 32400.00000 0 -3443884.803 -17027262.223 -18660965.403 10 0 59545 33300.00000 0 -1798960.488 -15266502.864 -20339791.742 10 0 59545 34200.00000 0 104604.018 -13507314.942 -21622998.815 10 0 59545 35100.00000 0 2233871.482 -11808236.948 -22485648.240 10 0 59545 36000.00000 0 4545180.835 -10221862.026 -22910991.345 10 0 59545 36900.00000 0 6985732.291 -8792732.604 -22890792.944 10 0 59545 37800.00000 0 9495564.011 -7555592.144 -22425488.754 10 0 59545 38700.00000 0 12009838.517 -6534066.558 -21524173.623 10 0 59545 39600.00000 0 14461343.891 -5739829.668 -20204421.068 10 0 59545 40500.00000 0 16783105.971 -5172286.567 -18491937.818 10 0 59545 41400.00000 0 18911003.012 -4818786.923 -16420060.160 10 0 59545 42300.00000 0 20786274.048 -4655357.999 -14029102.010 10 0 59545 43200.00000 0 22357816.710 -4647925.190 -11365567.453 10 0 59545 44100.00000 0 23584178.967 -4753967.419 -8481243.140 10 0 59545 45000.00000 0 24435162.018 -4924536.421 -5432188.445 10 0 59545 45900.00000 0 24892967.934 -5106553.626 -2277643.227 10 0 59545 46800.00000 0 24952844.748 -5245286.686 921125.298 10 0 59545 47700.00000 0 24623202.738 -5286900.250 4102013.739 10 0 59545 48600.00000 0 23925197.966 -5180972.543 7203288.367 10 0 59545 49500.00000 0 22891801.364 -4882870.926 10164781.993 10 0 59545 50400.00000 0 21566393.217 -4355885.690 12929058.503 10 0 59545 51300.00000 0 20000942.602 -3573031.732 15442522.595 10 0 59545 52200.00000 0 18253848.432 -2518441.750 17656453.567 10 0 59545 53100.00000 0 16387532.704 -1188291.936 19527943.543 10 0 59545 54000.00000 0 14465886.418 408779.396 21020722.718 10 0 59545 54900.00000 0 12551674.470 2251778.591 22105856.395 10 0 59545 55800.00000 0 10704007.244 4307985.423 22762301.041 10 0 59545 56700.00000 0 8975983.466 6534078.838 22977309.319 10 0 59545 57600.00000 0 7412601.672 8877714.177 22746676.688 10 0 59545 58500.00000 0 6049026.396 11279487.661 22074825.011 10 0 59545 59400.00000 0 4909280.439 13675207.942 20974721.440 10 0 59545 60300.00000 0 4005416.944 15998381.708 19467633.737 10 0 59545 61200.00000 0 3337205.265 18182811.114 17582726.061 10 0 59545 62100.00000 0 2892343.222 20165196.002 15356502.221 10 0 59545 63000.00000 0 2647186.520 21887633.145 12832106.113 10 0 59545 63900.00000 0 2567964.476 23299908.650 10058492.090 10 0 59545 64800.00000 0 2612430.711 24361487.824 7089480.490 10 0 59545 65700.00000 0 2731879.042 25043119.025 3982716.037 10 0 59545 66600.00000 0 2873439.180 25327983.828 798549.161 10 0 59545 67500.00000 0 2982554.685 25212344.698 -2401138.111 10 0 59545 68400.00000 0 3005537.685 24705662.549 -5554138.492 10 0 59545 69300.00000 0 2892091.332 23830178.694 -8599133.968 10 0 59545 70200.00000 0 2597692.120 22619978.503 -11476894.220 10 0 59545 71100.00000 0 2085730.005 21119575.966 -14131434.870 10 0 59545 72000.00000 0 1329314.451 19382078.632 -16511112.276 10 0 59545 72900.00000 0 312668.705 17467010.247 -18569632.997 10 0 59545 73800.00000 0 -967947.957 15437882.704 -20266957.909 10 0 59545 74700.00000 0 -2503830.137 13359619.496 -21570083.097 10 0 59545 75600.00000 0 -4273946.901 11295938.794 -22453682.385 10 0 59545 76500.00000 0 -6245589.106 9306805.789 -22900599.160 10 0 59545 77400.00000 0 -8375517.256 7446060.781 -22902178.138 10 0 59545 78300.00000 0 -10611562.662 5759321.798 -22458430.974 10 0 59545 79200.00000 0 -12894615.675 4282248.759 -21578032.771 10 0 59545 80100.00000 0 -15160918.391 3039240.904 -20278149.822 10 0 59545 81000.00000 0 -17344566.516 2042620.810 -18584102.102 10 0 59545 81900.00000 0 -19380116.298 1292337.794 -16528867.202 10 0 59545 82800.00000 0 -21205187.814 776201.746 -14152435.417 10 0 59545 83700.00000 0 -22762956.124 470635.970 -11501028.637 10 0 59545 84600.00000 0 -24004426.375 341915.876 -8626198.261 10 0 59545 85500.00000 0 -24890397.882 347839.935 -5583819.940 10 0 59546 0.00000 0 -25393035.312 439761.061 -2433005.165 10 0 59546 900.00000 0 -25496981.768 564891.559 765050.563 10 0 59546 1800.00000 0 -25199967.014 668783.179 3948255.920 10 0 59546 2700.00000 0 -24512886.861 697876.799 7054830.615 10 0 59546 3600.00000 0 -23459350.202 602013.258 10024503.018 10 0 59546 4500.00000 0 -22074713.648 336798.858 12799676.857 10 0 59546 5400.00000 0 -20404644.597 -134274.703 15326544.180 10 0 59546 6300.00000 0 -18503273.226 -838045.692 17556123.360 10 0 59546 7200.00000 0 -16431010.802 -1790308.476 19445202.448 10 0 59546 8100.00000 0 -14252125.307 -2994908.642 20957170.324 10 0 59546 9000.00000 0 -12032175.075 -4443345.739 22062720.340 10 0 59546 9900.00000 0 -9835406.819 -6114901.062 22740413.526 10 0 59546 10800.00000 0 -7722225.510 -7977286.217 22977091.202 10 0 59546 11700.00000 0 -5746840.384 -9987786.647 22768129.452 10 0 59546 12600.00000 0 -3955184.032 -12094853.778 22117530.733 10 0 59546 13500.00000 0 -2383190.052 -14240080.900 21037850.781 10 0 59546 14400.00000 0 -1055500.046 -16360481.929 19549961.797 10 0 59546 15300.00000 0 15347.007 -18390979.348 17682655.829 10 0 59546 16200.00000 0 829209.845 -20266998.674 15472095.166 10 0 59546 17100.00000 0 1398112.768 -21927062.066 12961119.408 10 0 59546 18000.00000 0 1745496.378 -23315273.135 10198421.762 10 0 59546 18900.00000 0 1904983.033 -24383589.088 7237609.698 10 0 59546 19800.00000 0 1918709.393 -25093784.952 4136167.585 10 0 59546 20700.00000 0 1835296.660 -25419026.823 954341.228 10 0 59546 21600.00000 0 1707544.816 -25344987.476 -2246034.092 10 0 59546 22500.00000 0 1589948.994 -24870456.753 -5402738.953 10 0 59546 23400.00000 0 1536143.869 -24007420.277 -8454384.477 10 0 59546 24300.00000 0 1596385.256 -22780602.556 -11341612.051 10 0 59546 25200.00000 0 1815176.634 -21226493.134 -14008254.041 10 0 59546 26100.00000 0 2229142.240 -19391896.411 -16402432.119 10 0 59546 27000.00000 0 2865237.920 -17332065.923 -18477571.271 10 0 59546 27900.00000 0 3739376.582 -15108501.289 -20193309.387 10 0 59546 28800.00000 0 4855527.398 -12786500.303 -21516284.448 10 0 59546 29700.00000 0 6205327.853 -10432568.681 -22420784.040 10 0 59546 30600.00000 0 7768226.005 -8111795.752 -22889244.722 10 0 59546 31500.00000 0 9512147.830 -5885305.652 -22912591.754 10 0 59546 32400.00000 0 11394662.497 -3807890.051 -22490412.925 10 0 59546 33300.00000 0 13364597.378 -1925920.607 -21630963.364 10 0 59546 34200.00000 0 15364035.699 -275627.513 -20351001.505 10 0 59546 35100.00000 0 17330613.608 1118185.136 -18675459.571 10 0 59546 36000.00000 0 19200020.905 2242934.760 -16636955.089 10 0 59546 36900.00000 0 20908600.896 3098534.681 -14275153.004 10 0 59546 37800.00000 0 22395940.738 3697137.625 -11635990.922 10 0 59546 38700.00000 0 23607343.886 4062360.778 -8770782.554 10 0 59546 39600.00000 0 24496081.089 4228026.583 -5735217.076 10 0 59546 40500.00000 0 25025325.740 4236473.889 -2588274.039 10 0 59546 41400.00000 0 25169692.563 4136512.071 608924.787 10 0 59546 42300.00000 0 24916315.315 3981105.648 3794303.920 10 0 59546 43200.00000 0 24265418.610 3824888.233 6906039.654 10 0 59546 44100.00000 0 23230360.206 3721611.588 9883758.910 10 0 59546 45000.00000 0 21837142.317 3721638.098 12669708.010 10 0 59546 45900.00000 0 20123412.695 3869582.933 15209868.820 10 0 59546 46800.00000 0 18136997.442 4202205.623 17455000.934 10 0 59546 47700.00000 0 15934026.863 4746640.105 19361590.142 10 0 59546 48600.00000 0 13576732.391 5519037.956 20892685.492 10 0 59546 49500.00000 0 11131005.907 6523682.235 22018609.533 10 0 59546 50400.00000 0 8663822.469 7752609.589 22717528.666 10 0 59546 51300.00000 0 6240632.732 9185757.242 22975873.325 10 0 59546 52200.00000 0 3922832.358 10791629.717 22788600.286 10 0 59546 53100.00000 0 1765412.541 12528458.560 22159292.279 10 0 59546 54000.00000 0 -185111.950 14345807.968 21100092.895 10 0 59546 54900.00000 0 -1892412.123 16186560.654 19631477.637 10 0 59546 55800.00000 0 -3331621.334 17989202.316 17781864.927 10 0 59546 56700.00000 0 -4490126.744 19690310.415 15587073.707 10 0 59546 57600.00000 0 -5367843.339 21227144.160 13089637.177 10 0 59546 58500.00000 0 -5976959.565 22540227.764 10337985.043 10 0 59546 59400.00000 0 -6341165.848 23575819.145 7385509.388 10 0 59546 60300.00000 0 -6494398.771 24288160.257 4289531.579 10 0 59546 61200.00000 0 -6479154.197 24641413.933 1110190.031 10 0 59546 62100.00000 0 -6344441.118 24611205.288 -2090729.531 10 0 59546 63000.00000 0 -6143463.228 24185701.804 -5250998.361 10 0 59546 63900.00000 0 -5931127.065 23366185.762 -8309159.471 10 0 59546 64800.00000 0 -5761483.005 22167094.025 -11205728.598 10 0 59546 65700.00000 0 -5685208.448 20615522.564 -13884357.312 10 0 59546 66600.00000 0 -5747240.734 18750215.955 -16292934.827 10 0 59546 67500.00000 0 -5984661.030 16620083.797 -18384606.526 10 0 59546 68400.00000 0 -6424919.704 14282305.905 -20118689.002 10 0 59546 69300.00000 0 -7084479.117 11800105.534 -21461463.519 10 0 59546 70200.00000 0 -7967932.008 9240283.654 -22386832.500 10 0 59546 71100.00000 0 -9067633.503 6670617.125 -22876826.421 10 0 59546 72000.00000 0 -10363862.890 4157229.271 -22921951.462 10 0 59546 72900.00000 0 -11825509.052 1762042.133 -22521371.504 10 0 59546 73800.00000 0 -13411251.298 -459583.954 -21682921.226 10 0 59546 74700.00000 0 -15071186.449 -2460925.723 -20422950.265 10 0 59546 75600.00000 0 -16748834.278 -4205601.789 -18766001.704 10 0 59546 76500.00000 0 -18383437.452 -5668836.985 -16744331.197 10 0 59546 77400.00000 0 -19912459.639 -6838234.772 -14397276.195 10 0 59546 78300.00000 0 -21274177.071 -7714027.017 -11770487.595 10 0 59546 79200.00000 0 -22410254.829 -8308792.358 -8915038.821 10 0 59546 80100.00000 0 -23268199.654 -8646656.655 -5886429.864 10 0 59546 81000.00000 0 -23803586.262 -8762010.835 -2743505.861 10 0 59546 81900.00000 0 -23981963.602 -8697801.700 452688.497 10 0 59546 82800.00000 0 -23780361.019 -8503469.116 3640096.056 10 0 59546 83700.00000 0 -23188331.086 -8232617.837 6756852.437 10 0 59546 84600.00000 0 -22208485.441 -7940523.176 9742485.795 10 0 59546 85500.00000 0 -20856501.212 -7681576.506 12539087.627 99